Wind_Speed
22 22 23 24 25 26 25 23 21 21 22 23 23 24 23 23 22 22 20 19 19 18 17 16 16 15 15 14 14 14 13 12 12 11 10 10 9 9 8 8 7 6 5 5 4 4 4 4 4
23 24 24 25 26 26 24 23 23 23 23 24 25 25 24 24 23 23 22 21 21 20 19 18 18 17 16 16 16 15 15 14 14 13 12 11 11 10 10 9 9 8 7 6 5 5 5 5 5
24 25 26 27 27 26 24 23 23 24 25 25 26 26 25 24 24 24 23 23 22 21 20 20 19 19 18 17 17 17 16 16 15 14 14 13 13 12 11 11 10 9 9 8 7 7 6 6 6
26 27 28 28 27 26 25 24 24 25 26 27 27 27 26 25 25 25 24 24 24 23 22 21 21 20 20 19 18 18 18 17 17 16 16 15 14 14 13 12 12 11 10 9 8 8 8 7 7
29 29 30 30 28 26 26 26 26 26 27 28 28 28 27 26 26 26 26 25 25 25 24 23 22 22 21 20 19 19 19 18 18 17 17 17 16 15 15 14 14 13 12 11 10 10 9 8 8
31 32 32 31 29 28 27 28 28 28 29 30 30 30 29 28 28 28 27 27 26 26 26 25 24 24 23 22 21 21 21 20 20 19 18 18 17 17 16 16 16 15 14 13 12 12 11 10 9
33 34 34 32 31 30 29 30 30 30 31 31 31 31 30 29 29 30 29 29 28 28 27 27 26 26 25 24 23 22 22 22 22 21 20 19 19 18 18 17 17 17 16 15 15 14 13 12 11
34 35 35 34 33 32 31 31 31 32 32 33 33 33 32 31 31 31 31 31 30 30 29 28 28 27 27 26 25 24 24 24 23 23 22 21 21 20 19 19 18 18 18 17 16 16 15 14 13
35 37 36 35 35 34 33 33 34 34 34 34 35 34 33 33 33 33 33 33 33 32 31 30 30 29 29 28 27 26 26 25 25 25 24 23 23 22 21 21 20 19 19 19 18 18 17 16 16
37 38 37 37 38 37 37 36 36 36 36 37 37 36 35 35 35 35 35 35 35 34 33 32 31 31 31 30 29 28 28 27 27 26 26 25 24 24 24 23 22 22 21 20 20 19 19 18 18
37 38 38 39 39 39 39 39 38 38 38 38 39 38 38 37 37 37 37 36 36 36 35 35 33 32 32 32 31 30 29 29 28 28 27 27 26 26 25 25 24 23 22 22 21 21 20 20 20
38 39 39 39 40 40 40 40 40 40 40 40 40 40 40 40 39 39 38 38 38 38 38 37 36 35 34 34 33 32 32 31 30 29 29 28 28 27 27 27 26 25 24 24 23 23 23 22 22
39 39 40 40 40 41 41 41 41 41 41 42 42 42 42 42 42 41 41 40 40 40 40 39 39 38 37 36 35 35 34 34 33 32 31 30 30 30 29 29 28 28 27 26 25 25 25 25 24
38 39 40 41 41 41 42 43 43 42 42 43 44 44 43 44 43 43 43 43 42 42 42 41 41 40 40 39 38 37 37 36 35 35 34 33 32 32 31 30 30 30 29 28 28 27 27 26 26
37 38 40 41 41 41 42 44 44 43 43 44 45 45 45 45 45 45 45 45 44 44 43 43 43 43 42 41 40 40 39 38 38 37 36 35 34 34 33 32 31 31 31 30 29 28 28 28 27
36 37 39 40 41 40 41 43 44 44 45 45 45 46 46 46 46 47 47 46 46 46 46 45 45 45 44 43 42 42 41 40 40 39 38 37 37 36 35 34 33 32 32 31 31 30 29 29 28
36 37 38 39 40 41 41 42 43 46 46 46 46 46 47 48 48 48 48 48 48 48 48 47 46 46 45 45 44 43 43 43 42 41 40 39 39 38 37 36 35 34 33 33 32 32 31 30 29
34 36 37 39 40 41 42 42 43 45 47 47 47 47 48 49 49 50 50 50 49 49 50 49 48 47 46 46 46 45 44 44 44 43 42 42 41 40 39 38 37 36 35 34 33 33 33 32 31
34 35 37 38 39 40 41 42 42 44 46 47 48 47 48 49 50 50 51 51 51 51 51 51 50 50 49 48 48 47 46 45 45 46 45 44 43 42 41 41 40 39 38 37 36 35 35 34 33
32 34 35 36 37 38 40 41 41 42 44 46 48 49 48 49 50 50 51 51 52 52 52 52 51 52 51 50 50 50 48 47 47 47 48 47 45 45 44 43 42 41 40 39 38 37 36 36 35
30 32 33 34 35 36 38 39 39 40 42 45 47 49 49 49 49 50 50 51 51 52 52 52 52 52 52 51 51 51 50 50 49 49 48 49 48 46 45 44 44 43 42 40 39 38 38 38 37
28 30 31 32 32 33 35 38 38 39 40 42 44 45 48 48 48 49 50 51 51 51 52 52 52 52 51 52 52 53 52 52 52 49 49 49 49 48 47 45 45 44 44 43 41 40 40 40 39
27 28 29 30 31 33 33 36 37 37 38 40 41 42 44 46 47 48 49 49 50 51 51 51 52 52 52 53 52 52 53 52 52 53 50 50 51 51 49 48 48 47 46 45 44 43 42 41 40
27 27 28 29 30 32 32 34 35 35 37 37 39 41 42 44 45 46 47 48 49 51 51 52 52 52 52 53 52 52 52 54 54 53 52 51 51 51 51 50 48 47 47 47 46 44 43 42 42
27 26 26 27 29 30 30 32 33 33 35 36 37 38 40 42 43 44 46 47 49 51 52 53 53 52 53 53 54 54 53 53 55 55 55 53 51 52 52 52 51 49 49 48 47 46 45 44 42
25 25 25 26 27 27 28 30 31 32 33 34 36 37 38 40 41 42 45 47 49 51 52 53 54 54 54 53 53 53 54 53 54 56 56 56 54 52 53 52 52 51 50 49 48 48 47 46 44
24 23 24 26 27 28 28 30 31 32 33 34 36 37 37 38 40 41 43 45 47 50 51 53 54 55 55 54 54 53 53 54 55 56 57 58 57 55 54 52 52 52 51 50 49 48 48 47 46
23 22 23 24 26 28 29 30 31 32 32 34 35 36 37 38 39 39 41 44 46 47 49 51 52 54 55 56 55 55 55 55 55 55 56 58 58 58 56 54 53 52 51 51 50 49 49 48 48
22 21 22 24 25 27 29 28 29 31 33 33 35 36 37 38 39 39 40 42 44 46 48 49 50 51 53 54 55 56 56 55 55 55 56 57 59 59 58 56 55 53 53 52 51 50 50 49 49
23 22 23 24 24 25 28 28 28 29 32 34 35 37 38 39 40 39 39 41 43 44 47 48 50 50 52 52 53 53 54 54 55 55 56 57 58 60 60 58 57 56 54 54 54 53 52 51 51
Wind_Direction
252 251 250 249 249 248 247 245 243 240 239 239 239 241 241 241 239 238 236 234 231 229 229 231 231 229 227 224 222 221 221 219 213 211 212 212 212 213 214 214 215 217 220 224 224 227 228 223 218
253 252 250 249 249 250 248 246 244 241 240 239 239 240 240 239 238 238 236 234 233 231 230 231 232 230 228 226 225 224 223 222 219 218 219 219 218 217 218 219 221 224 227 230 233 233 234 233 233
253 252 251 250 251 251 249 246 244 241 240 239 239 239 239 238 238 237 236 235 234 233 231 231 232 230 229 229 228 226 225 225 222 222 223 223 220 219 221 222 224 227 231 233 237 237 235 237 240
254 253 252 252 252 252 250 247 246 243 242 241 240 239 239 238 238 237 236 235 234 234 233 232 231 230 230 230 229 228 227 226 225 225 226 224 223 223 223 226 228 230 233 235 236 238 239 238 238
253 252 252 252 252 251 249 247 246 244 243 242 241 240 239 238 237 237 236 235 234 234 234 232 231 231 231 231 230 229 229 228 227 226 227 226 226 226 226 229 232 233 236 238 237 238 240 240 238
254 253 253 253 252 251 249 247 246 245 244 243 242 241 240 238 236 236 236 235 234 234 234 234 232 231 231 232 233 231 231 230 229 228 228 229 229 229 230 231 234 236 238 240 239 238 238 238 239
256 255 255 255 253 250 248 246 245 245 244 243 242 240 238 238 237 236 235 235 234 233 233 233 233 233 233 232 233 233 232 231 230 229 229 230 231 231 232 234 235 237 239 240 238 238 238 239 240
257 256 256 255 253 251 249 247 245 244 244 243 242 241 238 238 237 236 235 235 234 234 234 235 234 233 233 232 232 233 233 232 231 230 230 231 231 232 234 235 236 238 239 239 239 239 239 239 241
257 257 257 256 254 252 250 248 246 244 244 243 243 242 240 238 237 236 235 235 234 234 235 235 235 234 234 233 232 232 233 233 232 231 231 232 232 233 235 237 238 239 239 239 240 241 240 241 242
257 257 257 256 254 251 250 249 247 245 244 243 243 242 241 239 237 237 236 235 234 234 235 235 235 235 235 234 234 234 234 234 233 233 233 233 234 235 236 237 239 239 239 239 240 240 241 242 243
257 257 257 255 253 250 249 248 246 245 244 244 243 242 241 240 238 238 237 237 236 235 235 236 236 235 235 234 234 235 235 235 235 235 235 235 235 236 237 238 239 240 240 241 241 242 243 244 244
258 257 257 256 254 251 248 247 246 245 244 244 243 242 242 241 240 239 238 237 236 236 236 236 236 236 235 234 234 234 236 236 235 236 236 236 236 237 238 239 240 240 241 242 243 243 244 245 245
259 257 256 255 254 252 248 247 246 244 243 242 242 242 241 241 241 240 239 238 237 236 236 236 237 237 236 236 236 235 235 236 236 236 236 237 237 238 239 240 240 241 242 243 244 244 244 245 246
260 259 257 255 254 252 249 247 246 245 244 243 242 242 242 241 241 240 240 239 238 237 237 237 237 237 237 236 236 236 235 236 236 237 236 237 237 239 240 241 241 241 242 244 244 244 244 246 246
261 260 258 256 254 252 250 247 246 245 244 243 243 243 242 242 241 241 240 239 238 238 237 237 237 237 237 237 237 237 237 237 237 237 237 237 238 239 240 241 241 241 242 243 243 244 244 245 247
262 261 259 257 255 253 251 248 246 245 244 244 244 244 243 242 242 241 240 240 239 238 238 238 238 237 237 237 237 237 237 237 237 237 237 238 239 240 240 240 241 241 242 243 243 244 244 245 246
262 261 260 258 255 254 252 250 247 246 245 244 244 244 244 243 242 242 241 240 239 238 238 238 238 238 237 236 236 237 237 237 238 238 237 238 239 239 240 241 241 242 242 243 244 245 245 245 246
264 262 261 259 256 254 252 251 249 248 246 244 243 243 243 242 242 241 241 240 239 238 238 237 237 237 237 236 236 236 237 237 238 238 238 238 238 239 240 241 242 242 243 243 244 245 246 246 246
266 264 262 261 259 257 255 253 252 250 248 246 244 243 242 241 241 241 240 239 238 238 237 237 237 236 236 236 235 235 236 237 238 238 239 239 239 239 240 241 242 243 244 244 244 245 246 245 246
269 267 265 263 260 259 257 255 253 251 250 248 245 243 242 241 240 240 240 239 239 238 237 236 236 237 237 236 236 236 237 237 238 238 239 238 238 240 241 241 242 243 244 243 244 245 246 245 246
273 270 266 264 262 260 259 257 254 253 251 248 245 243 242 241 240 240 240 239 239 238 237 237 237 237 237 237 238 238 237 238 238 238 238 238 237 238 239 240 241 241 242 242 242 243 245 246 247
277 272 267 263 262 261 260 259 255 252 250 248 245 243 242 241 240 239 239 239 238 238 237 237 237 237 238 239 239 239 238 238 238 238 237 237 237 237 237 238 239 239 240 242 242 243 244 246 246
280 275 268 263 263 263 260 258 255 251 248 247 246 244 243 242 241 240 239 239 239 238 237 237 237 237 239 239 239 239 238 238 238 237 236 236 236 237 237 237 238 239 239 240 242 243 244 245 246
283 278 269 264 262 261 259 258 256 252 250 249 248 247 245 243 243 241 240 239 238 238 237 236 237 238 239 239 239 240 239 238 238 237 236 236 236 236 236 237 238 238 238 239 241 243 244 245 246
285 279 273 267 264 261 259 259 257 255 253 251 249 248 246 244 243 243 241 240 239 239 238 238 238 238 239 239 240 240 240 239 239 238 237 237 237 237 237 237 239 239 239 240 241 242 243 245 246
290 281 273 269 266 263 260 258 258 257 256 253 251 249 247 247 245 245 244 243 242 240 240 240 240 240 240 240 240 239 239 239 240 240 239 238 238 239 238 238 239 239 240 241 242 243 243 244 244
290 283 276 272 268 264 262 260 258 257 257 255 252 250 250 249 248 247 246 245 244 243 242 241 240 240 240 241 240 240 240 241 241 241 240 240 240 240 239 239 239 239 239 240 241 243 244 244 243
290 285 279 274 272 268 265 263 261 259 258 258 254 252 251 251 249 248 248 247 245 245 244 242 241 241 241 242 242 242 241 242 242 242 241 241 241 241 241 240 240 239 240 240 241 243 244 245 245
290 285 278 275 273 273 270 268 264 263 261 260 257 255 252 251 249 249 249 249 247 245 244 243 241 241 241 242 243 243 242 243 243 242 242 242 241 242 243 243 241 241 240 240 242 243 244 245 246
292 285 279 276 276 275 272 270 267 265 264 263 261 257 256 254 251 250 250 249 248 246 245 244 243 242 242 242 243 243 242 243 243 243 242 242 242 242 242 243 243 243 242 241 242 242 243 245 246
Height
5793 5794 5795 5796 5797 5798 5800 5804 5806 5808 5810 5811 5813 5814 5817 5819 5822 5826 5827 5828 5829 5831 5833 5834 5836 5838 5840 5841 5843 5845 5846 5848 5849 5851 5853 5854 5856 5857 5859 5860 5861 5862 5864 5865 5866 5867 5868 5868 5869
5788 5789 5790 5791 5791 5793 5796 5799 5802 5804 5805 5807 5808 5810 5812 5814 5817 5819 5821 5823 5825 5828 5829 5831 5833 5835 5837 5839 5840 5842 5844 5846 5847 5849 5851 5853 5854 5856 5857 5859 5860 5861 5862 5864 5865 5866 5867 5868 5869
5783 5783 5785 5785 5786 5789 5792 5795 5797 5798 5800 5802 5804 5806 5808 5810 5813 5815 5817 5819 5822 5824 5826 5828 5830 5832 5834 5836 5838 5839 5841 5843 5845 5847 5849 5850 5852 5854 5855 5857 5858 5860 5861 5862 5863 5865 5866 5867 5868
5777 5778 5779 5780 5781 5785 5787 5790 5791 5793 5795 5797 5799 5801 5804 5806 5808 5810 5812 5815 5817 5820 5822 5824 5826 5828 5830 5833 5835 5837 5838 5840 5842 5844 5846 5848 5850 5851 5853 5855 5857 5858 5860 5861 5862 5863 5864 5865 5866
5770 5771 5772 5773 5776 5779 5781 5783 5785 5787 5789 5791 5794 5796 5799 5801 5803 5806 5808 5810 5813 5815 5817 5820 5822 5825 5827 5829 5831 5833 5835 5837 5839 5841 5843 5845 5847 5849 5851 5852 5854 5856 5858 5859 5860 5862 5863 5864 5865
5762 5763 5765 5767 5771 5773 5775 5777 5779 5781 5783 5785 5788 5790 5793 5796 5798 5800 5803 5805 5808 5810 5813 5815 5818 5820 5823 5825 5827 5830 5832 5834 5836 5838 5840 5842 5844 5846 5848 5850 5852 5853 5855 5857 5858 5860 5861 5862 5863
5755 5756 5758 5761 5764 5766 5769 5770 5772 5774 5776 5779 5781 5784 5787 5790 5792 5795 5797 5800 5802 5805 5807 5810 5813 5816 5818 5821 5823 5825 5828 5830 5832 5834 5836 5839 5841 5843 5845 5847 5849 5851 5852 5854 5856 5857 5859 5860 5861
5746 5748 5749 5752 5755 5759 5761 5763 5765 5767 5770 5772 5774 5777 5781 5784 5786 5788 5791 5794 5797 5799 5802 5805 5808 5810 5813 5816 5818 5821 5823 5825 5828 5830 5833 5835 5837 5839 5841 5843 5845 5847 5849 5851 5852 5854 5856 5857 5859
5737 5739 5741 5744 5747 5751 5753 5755 5758 5760 5762 5765 5767 5770 5774 5776 5779 5782 5785 5787 5790 5793 5796 5799 5802 5805 5808 5811 5813 5816 5818 5821 5823 5826 5828 5831 5833 5835 5837 5840 5842 5844 5845 5847 5849 5851 5853 5854 5856
5727 5729 5733 5736 5738 5741 5744 5746 5749 5752 5754 5757 5759 5762 5765 5768 5771 5775 5778 5781 5784 5787 5790 5793 5796 5799 5802 5805 5808 5810 5813 5816 5818 5821 5823 5826 5828 5831 5833 5835 5837 5840 5842 5843 5845 5847 5849 5851 5852
5717 5720 5723 5725 5727 5730 5733 5736 5739 5742 5745 5748 5751 5755 5757 5760 5763 5767 5770 5773 5776 5780 5783 5786 5789 5792 5795 5799 5802 5805 5807 5810 5813 5815 5818 5821 5823 5826 5828 5831 5833 5835 5837 5839 5841 5843 5845 5847 5848
5707 5710 5712 5714 5716 5719 5723 5726 5729 5732 5736 5739 5742 5745 5749 5752 5755 5759 5762 5765 5768 5772 5775 5778 5782 5785 5788 5791 5795 5798 5801 5804 5807 5809 5812 5815 5818 5820 5823 5826 5828 5830 5832 5835 5837 5839 5840 5842 5844
5697 5700 5701 5704 5706 5708 5711 5715 5718 5722 5725 5728 5732 5735 5739 5742 5746 5749 5753 5756 5760 5763 5767 5770 5773 5777 5780 5784 5787 5791 5794 5797 5800 5803 5806 5809 5812 5814 5817 5820 5822 5825 5827 5829 5831 5833 5835 5837 5839
5686 5688 5690 5692 5694 5697 5700 5704 5707 5711 5714 5717 5721 5725 5728 5732 5736 5739 5743 5747 5750 5754 5758 5761 5765 5768 5772 5776 5779 5783 5786 5789 5793 5796 5799 5802 5805 5808 5811 5813 5816 5818 5821 5824 5826 5828 5830 5832 5834
5675 5677 5679 5681 5683 5685 5688 5692 5695 5699 5702 5706 5709 5713 5717 5721 5725 5729 5733 5736 5741 5744 5748 5752 5755 5759 5763 5767 5771 5774 5778 5781 5785 5788 5792 5795 5798 5801 5804 5807 5809 5812 5815 5817 5819 5822 5824 5826 5829
5664 5665 5667 5670 5671 5674 5677 5680 5684 5687 5690 5694 5698 5701 5705 5709 5713 5717 5721 5725 5729 5734 5738 5741 5745 5749 5753 5758 5762 5765 5768 5772 5776 5780 5783 5787 5790 5793 5796 5799 5802 5805 5808 5810 5813 5815 5818 5820 5823
5652 5653 5655 5658 5660 5662 5665 5669 5672 5674 5678 5682 5686 5690 5693 5697 5701 5705 5709 5713 5718 5722 5726 5730 5735 5739 5743 5748 5752 5756 5759 5763 5767 5771 5774 5778 5782 5785 5788 5792 5795 5798 5801 5803 5806 5809 5811 5814 5816
5641 5643 5645 5647 5649 5651 5653 5657 5660 5662 5665 5669 5673 5677 5680 5684 5688 5692 5696 5700 5705 5710 5714 5719 5723 5728 5732 5737 5742 5746 5750 5753 5757 5761 5765 5769 5773 5776 5780 5783 5787 5790 5793 5796 5799 5802 5804 5807 5810
5632 5633 5635 5637 5638 5640 5642 5645 5648 5650 5653 5656 5660 5664 5667 5671 5675 5679 5683 5687 5692 5697 5702 5707 5711 5716 5721 5725 5730 5735 5739 5743 5747 5751 5755 5759 5763 5767 5770 5774 5778 5781 5785 5788 5791 5794 5797 5800 5802
5622 5623 5624 5626 5627 5629 5631 5634 5636 5638 5640 5643 5646 5650 5654 5658 5662 5666 5670 5675 5680 5685 5689 5694 5700 5704 5709 5714 5719 5724 5728 5733 5737 5740 5744 5749 5753 5757 5761 5765 5768 5772 5775 5779 5782 5786 5789 5792 5795
5613 5614 5615 5616 5617 5618 5620 5622 5625 5627 5628 5630 5633 5637 5641 5645 5650 5654 5658 5663 5667 5672 5677 5682 5687 5692 5697 5702 5707 5711 5716 5721 5724 5728 5732 5737 5742 5746 5750 5754 5758 5762 5766 5769 5773 5776 5780 5783 5786
5605 5605 5606 5606 5607 5608 5610 5610 5613 5615 5616 5618 5622 5625 5629 5633 5637 5642 5646 5651 5655 5660 5665 5671 5676 5681 5685 5690 5694 5699 5704 5709 5713 5717 5721 5726 5731 5736 5740 5743 5748 5752 5756 5760 5763 5766 5770 5774 5777
5598 5597 5597 5598 5598 5599 5600 5600 5603 5604 5606 5609 5612 5615 5618 5622 5626 5630 5634 5639 5643 5648 5653 5659 5664 5669 5673 5678 5682 5687 5692 5697 5701 5706 5710 5715 5719 5724 5729 5733 5737 5741 5746 5750 5753 5757 5760 5764 5767
5590 5590 5589 5590 5590 5591 5591 5591 5593 5594 5597 5600 5602 5605 5608 5611 5615 5618 5623 5627 5631 5636 5641 5646 5652 5657 5661 5666 5670 5675 5680 5685 5689 5694 5698 5703 5708 5713 5717 5722 5726 5730 5735 5739 5743 5747 5750 5754 5758
5584 5583 5582 5581 5581 5582 5583 5582 5585 5586 5588 5591 5593 5595 5598 5601 5604 5608 5612 5615 5619 5624 5629 5634 5639 5644 5649 5653 5658 5662 5667 5672 5677 5682 5687 5691 5696 5701 5706 5710 5715 5719 5724 5728 5732 5736 5740 5744 5748
5577 5576 5576 5574 5573 5574 5575 5575 5578 5579 5580 5582 5584 5586 5589 5591 5594 5597 5601 5604 5607 5612 5616 5621 5626 5631 5636 5641 5645 5650 5655 5660 5664 5670 5675 5679 5684 5689 5694 5698 5703 5708 5713 5717 5721 5725 5729 5733 5737
5571 5570 5570 5569 5567 5568 5568 5568 5570 5571 5572 5574 5575 5577 5580 5582 5584 5587 5590 5593 5596 5600 5604 5609 5613 5618 5623 5628 5632 5637 5642 5647 5652 5657 5662 5667 5672 5677 5681 5686 5691 5696 5701 5706 5710 5715 5719 5723 5727
5567 5565 5564 5562 5560 5560 5561 5562 5563 5564 5565 5566 5567 5569 5571 5573 5574 5576 5579 5581 5584 5587 5591 5596 5600 5605 5610 5615 5619 5624 5629 5633 5638 5643 5649 5654 5659 5663 5669 5673 5679 5684 5689 5694 5699 5703 5708 5712 5716
5562 5560 5558 5556 5555 5554 5554 5558 5557 5556 5556 5557 5558 5559 5561 5563 5564 5566 5568 5570 5573 5576 5579 5583 5588 5592 5597 5601 5606 5611 5615 5619 5624 5630 5635 5640 5645 5650 5656 5661 5666 5671 5676 5682 5687 5692 5696 5701 5705
5556 5554 5553 5552 5550 5548 5548 5553 5550 5549 5549 5549 5550 5551 5552 5553 5554 5556 5558 5559 5562 5564 5567 5571 5576 5580 5585 5589 5593 5597 5601 5606 5611 5616 5621 5626 5631 5637 5642 5647 5653 5658 5663 5669 5674 5679 5684 5689 5693